GW5441 Weather Reports


time (UTC)temp
C
wind
direction
speed
KPH
gust
KPH
rain 1hr
cm
rain 24hr
cm
rain mn
cm
humidity
%
barometer
mb
20260507214034 12 319 1.6 4.8 0.00 0.10 0.08 76 1015.5
20260507213534 12 267 0.0 4.8 0.00 0.10 0.08 76 1015.5
20260507213048 12 325 0.0 4.8 0.00 0.10 0.08 76 1015.5
20260507212535 12 347 0.0 3.2 0.00 0.10 0.08 76 1015.5
20260507212038 12 320 0.0 3.2 0.00 0.10 0.08 75 1015.4
20260507211600 13 0 0.0 4.8 0.00 0.10 0.08 75 1015.3
20260507211035 13 310 0.0 4.8 0.00 0.10 0.08 75 1015.3
20260507210535 13 338 1.6 4.8 0.00 0.10 0.08 75 1015.2
20260507210049 13 0 1.6 4.8 0.00 0.10 0.08 76 1015.3
20260507205535 13 16 3.2 4.8 0.00 0.20 0.08 74 1015.3
20260507205034 13 344 1.6 4.8 0.00 0.20 0.08 74 1015.4
20260507204553 13 0 0.0 4.8 0.00 0.20 0.08 73 1015.2
20260507204034 13 347 1.6 4.8 0.00 0.20 0.08 73 1015.2
20260507203535 13 351 1.6 4.8 0.00 0.20 0.08 73 1015.0
20260507203052 13 351 0.0 4.8 0.00 0.20 0.08 72 1015.1
20260507202536 13 335 0.0 3.2 0.00 0.20 0.08 70 1015.0
20260507202034 13 0 0.0 4.8 0.00 0.20 0.08 70 1014.9
20260507201548 13 0 1.6 4.8 0.00 0.20 0.08 71 1014.7
20260507201035 13 355 1.6 4.8 0.00 0.20 0.08 71 1014.6
20260507200535 13 0 1.6 4.8 0.00 0.20 0.08 70 1014.6
20260507200051 14 12 3.2 4.8 0.00 0.20 0.08 71 1014.5
20260507195535 14 37 1.6 4.8 0.00 0.36 0.08 70 1014.5
20260507195035 14 19 3.2 4.8 0.00 0.36 0.08 69 1014.3
20260507194554 15 27 1.6 4.8 0.00 0.36 0.08 68 1014.3
20260507194035 15 27 1.6 4.8 0.00 0.36 0.08 67 1014.2
20260507193534 15 44 1.6 4.8 0.00 0.36 0.08 67 1014.3
20260507193057 15 42 0.0 9.7 0.00 0.36 0.08 65 1014.1
20260507192535 15 286 0.0 9.7 0.00 0.36 0.08 63 1014.1
20260507192035 15 330 1.6 8.0 0.00 0.36 0.08 63 1014.0
20260507191555 15 317 1.6 6.4 0.00 0.36 0.08 63 1013.9
20260507191039 15 360 1.6 9.7 0.00 0.36 0.08 63 1014.0
20260507190535 15 23 1.6 11.3 0.00 0.36 0.08 63 1013.8
20260507190046 15 339 1.6 11.3 0.00 0.36 0.08 63 1013.8
20260507185535 15 40 1.6 12.9 0.00 0.64 0.08 63 1013.7
20260507185035 15 35 3.2 12.9 0.00 0.64 0.08 62 1013.7
20260507184550 15 5 4.8 12.9 0.00 0.64 0.08 61 1013.6
20260507184039 15 32 3.2 12.9 0.00 0.64 0.08 62 1013.5
20260507183535 15 10 3.2 12.9 0.00 0.64 0.08 62 1013.4
20260507183050 15 26 3.2 12.9 0.00 0.64 0.08 61 1013.3
20260507182535 15 308 4.8 12.9 0.00 0.64 0.08 62 1013.3
20260507182036 16 329 3.2 14.5 0.00 0.64 0.08 62 1013.2
20260507181550 16 339 3.2 14.5 0.00 0.64 0.08 62 1013.2
20260507181035 16 320 1.6 14.5 0.00 0.64 0.08 62 1013.0
20260507180539 16 346 3.2 14.5 0.00 0.64 0.08 61 1013.2
20260507180050 16 29 3.2 14.5 0.00 0.64 0.08 62 1013.0
20260507175535 16 19 1.6 14.5 0.00 0.64 0.08 61 1012.9
20260507175035 16 38 3.2 14.5 0.00 0.64 0.08 60 1012.9
20260507174614 17 66 4.8 14.5 0.00 0.64 0.08 60 1012.8
20260507174035 17 351 1.6 8.0 0.00 0.64 0.08 59 1012.7
20260507173535 17 51 1.6 8.0 0.00 0.64 0.08 59 1012.8
20260507173055 17 338 1.6 8.0 0.00 0.64 0.08 58 1012.6
20260507172534 17 0 0.0 8.0 0.00 0.64 0.08 59 1012.7
20260507172034 17 94 1.6 8.0 0.00 0.64 0.08 57 1012.7
20260507171608 18 19 1.6 6.4 0.00 0.64 0.08 57 1012.6
20260507171035 18 43 0.0 4.8 0.00 0.64 0.08 57 1012.5
20260507170535 18 0 1.6 4.8 0.00 0.64 0.08 54 1012.6
20260507170051 18 335 0.0 4.8 0.00 0.64 0.08 55 1012.5
20260507165537 18 0 0.0 4.8 0.00 0.64 0.08 58 1012.4
20260507165035 19 0 1.6 6.4 0.00 0.64 0.08 56 1012.4
20260507164552 19 249 1.6 6.4 0.00 0.64 0.08 56 1012.5
20260507164035 20 275 1.6 6.4 0.00 0.64 0.08 53 1012.4
20260507163535 20 202 1.6 6.4 0.00 0.64 0.08 56 1012.4
20260507163051 20 250 1.6 11.3 0.00 0.64 0.08 53 1012.4
20260507162535 20 206 1.6 11.3 0.00 0.64 0.08 54 1012.3
20260507162035 20 231 3.2 11.3 0.00 0.64 0.08 55 1012.3
20260507161553 20 274 4.8 11.3 0.00 0.64 0.08 53 1012.3
20260507161037 20 238 4.8 12.9 0.00 0.64 0.08 54 1012.4
20260507160535 20 248 4.8 12.9 0.00 0.64 0.08 53 1012.4
20260507160114 20 236 3.2 11.3 0.00 0.64 0.08 53 1012.4
20260507155534 20 267 4.8 14.5 0.00 0.64 0.08 50 1012.5
20260507155035 20 234 4.8 14.5 0.00 0.64 0.08 52 1012.5
20260507154551 20 242 6.4 12.9 0.00 0.64 0.08 51 1012.5
20260507154034 20 186 4.8 12.9 0.00 0.64 0.08 54 1012.4
20260507153534 20 255 4.8 8.0 0.00 0.64 0.08 49 1012.6
20260507153048 20 199 1.6 11.3 0.00 0.64 0.08 53 1012.4
20260507152537 20 238 4.8 12.9 0.00 0.64 0.08 50 1012.5
20260507152040 20 242 6.4 12.9 0.00 0.64 0.08 49 1012.5
20260507151555 20 213 6.4 12.9 0.00 0.64 0.08 51 1012.6
20260507151035 20 207 3.2 14.5 0.00 0.64 0.08 49 1012.5
20260507150535 20 172 6.4 14.5 0.00 0.64 0.08 51 1012.6
20260507150051 20 144 3.2 9.7 0.00 0.64 0.08 51 1012.5
20260507145537 20 153 3.2 9.7 0.00 0.64 0.08 49 1012.5
20260507145036 20 160 4.8 9.7 0.00 0.64 0.08 50 1012.6
20260507144547 20 193 4.8 9.7 0.00 0.64 0.08 49 1012.5
20260507144036 20 156 3.2 16.1 0.00 0.64 0.08 46 1012.5
20260507143534 20 162 4.8 16.1 0.00 0.64 0.08 52 1012.7
20260507143054 20 174 6.4 16.1 0.00 0.64 0.08 53 1012.7
20260507142535 20 164 4.8 14.5 0.00 0.64 0.08 51 1012.7
20260507142035 20 175 6.4 19.3 0.00 0.64 0.08 49 1012.8
20260507141548 20 178 6.4 19.3 0.00 0.64 0.08 54 1012.9
20260507141035 20 171 8.0 17.7 0.00 0.64 0.08 52 1012.9
20260507140535 20 188 6.4 17.7 0.00 0.64 0.08 51 1012.9
20260507140057 20 188 6.4 16.1 0.00 0.64 0.08 48 1013.0
20260507135535 20 158 4.8 16.1 0.00 0.74 0.08 54 1012.9
20260507135037 20 212 6.4 12.9 0.00 0.74 0.08 55 1012.9
20260507134547 20 259 4.8 16.1 0.00 0.74 0.08 51 1012.9
20260507134034 20 230 6.4 16.1 0.00 0.74 0.08 51 1013.1
20260507133535 20 159 6.4 14.5 0.00 0.74 0.08 53 1013.2
20260507133045 20 205 4.8 14.5 0.00 0.74 0.08 54 1013.2
20260507132534 20 249 8.0 16.1 0.00 0.74 0.08 55 1013.3
20260507132035 20 254 6.4 17.7 0.00 0.74 0.08 50 1013.4
20260507131609 20 223 8.0 17.7 0.00 0.74 0.08 52 1013.4
20260507131035 20 248 8.0 17.7 0.00 0.74 0.08 56 1013.5
20260507130534 20 228 6.4 17.7 0.00 0.74 0.08 55 1013.6
20260507130043 20 215 6.4 17.7 0.00 0.74 0.08 58 1013.5
20260507125534 19 230 8.0 17.7 0.00 2.01 0.08 56 1013.5
20260507125035 19 216 6.4 17.7 0.00 2.01 0.08 59 1013.5
20260507124554 19 267 8.0 19.3 0.00 2.01 0.08 58 1013.5
20260507124036 19 237 9.7 20.9 0.00 2.01 0.08 57 1013.4
20260507123534 18 257 9.7 20.9 0.00 2.01 0.08 57 1013.4
20260507123047 18 277 9.7 19.3 0.00 2.01 0.08 58 1013.5
20260507122534 18 249 9.7 17.7 0.00 2.01 0.08 62 1013.5
20260507122034 18 227 9.7 19.3 0.00 2.01 0.08 61 1013.4
20260507121543 18 196 6.4 19.3 0.00 2.01 0.08 66 1013.4
20260507121035 18 289 8.0 17.7 0.00 2.01 0.08 62 1013.4
20260507120534 18 219 9.7 17.7 0.00 2.01 0.08 61 1013.5
20260507120047 18 237 9.7 17.7 0.00 2.01 0.08 63 1013.3
20260507115535 18 217 8.0 19.3 0.00 2.26 0.08 64 1013.4
20260507115034 18 257 9.7 19.3 0.00 2.26 0.08 63 1013.5
20260507114548 18 245 6.4 19.3 0.00 2.26 0.08 63 1013.4
20260507114042 18 273 11.3 19.3 0.00 2.26 0.08 64 1013.5
20260507113535 18 245 8.0 19.3 0.00 2.26 0.08 64 1013.4
20260507113109 18 294 8.0 20.9 0.00 2.26 0.08 64 1013.4
20260507112536 17 275 8.0 20.9 0.00 2.26 0.08 63 1013.6
20260507112034 17 240 9.7 22.5 0.00 2.26 0.08 63 1013.6
20260507111545 17 286 9.7 22.5 0.00 2.26 0.08 60 1013.6
20260507111034 17 259 11.3 22.5 0.00 2.26 0.08 63 1013.7
20260507110534 17 282 6.4 20.9 0.00 2.26 0.08 65 1013.6
20260507110048 17 237 12.9 19.3 0.00 2.26 0.08 64 1013.6
20260507105534 17 262 6.4 19.3 0.00 2.34 0.08 65 1013.8
20260507105035 17 254 11.3 19.3 0.00 2.34 0.08 65 1013.7
20260507104556 17 290 8.0 16.1 0.00 2.34 0.08 67 1013.8
20260507104035 16 271 6.4 16.1 0.00 2.34 0.08 65 1014.0
20260507103535 16 238 9.7 16.1 0.00 2.34 0.08 65 1014.0
20260507103050 16 259 6.4 16.1 0.00 2.34 0.08 65 1014.0
20260507102535 16 252 8.0 16.1 0.00 2.34 0.08 64 1014.0
20260507102034 16 272 6.4 16.1 0.00 2.34 0.08 69 1014.1
20260507101554 16 232 6.4 16.1 0.00 2.34 0.08 70 1014.0
20260507101036 16 215 6.4 16.1 0.00 2.34 0.08 71 1014.2
20260507100536 16 274 9.7 17.7 0.00 2.34 0.08 74 1014.1
20260507100054 16 240 4.8 17.7 0.00 2.34 0.08 70 1014.1
20260507095538 16 246 8.0 17.7 0.00 2.36 0.08 74 1014.1
20260507095037 15 254 6.4 12.9 0.00 2.36 0.08 76 1014.1
20260507094604 15 209 6.4 12.9 0.00 2.36 0.08 76 1014.2
20260507094036 15 267 8.0 12.9 0.00 2.36 0.08 75 1013.9
20260507093538 15 219 6.4 12.9 0.00 2.36 0.08 78 1014.1
20260507093050 15 238 4.8 9.7 0.00 2.36 0.08 80 1014.1
20260507092535 15 251 4.8 9.7 0.00 2.36 0.08 80 1014.1
20260507092037 15 186 1.6 11.3 0.00 2.36 0.08 79 1014.1
20260507091550 14 207 3.2 11.3 0.00 2.36 0.08 80 1014.0
20260507091036 14 213 4.8 11.3 0.00 2.36 0.08 80 1014.1
20260507090532 14 281 4.8 11.3 0.00 2.36 0.08 81 1014.2
20260507090049 14 262 4.8 11.3 0.00 2.36 0.08 80 1014.2
20260507085531 13 263 1.6 11.3 0.00 2.36 0.08 80 1014.2
20260507085036 13 241 3.2 11.3 0.00 2.36 0.08 80 1014.2
20260507084553 13 200 4.8 11.3 0.00 2.36 0.08 81 1014.2
20260507084035 13 200 3.2 8.0 0.00 2.36 0.08 84 1014.1
20260507083535 13 212 3.2 8.0 0.00 2.36 0.08 83 1014.1
20260507083047 13 157 3.2 11.3 0.00 2.36 0.08 82 1013.9
20260507082535 13 153 3.2 11.3 0.00 2.36 0.08 84 1014.1
20260507082034 12 191 1.6 9.7 0.00 2.36 0.08 83 1014.1
20260507081550 12 179 3.2 8.0 0.00 2.36 0.08 84 1014.1
20260507081035 12 150 3.2 8.0 0.00 2.36 0.08 85 1014.1
20260507080536 12 143 1.6 8.0 0.00 2.36 0.08 87 1014.2
20260507080055 12 150 1.6 6.4 0.00 2.36 0.08 87 1014.3
20260507075533 12 133 1.6 6.4 0.00 2.39 0.08 89 1014.2
20260507075034 12 0 1.6 8.0 0.00 2.39 0.08 90 1014.3
20260507074551 12 0 3.2 8.0 0.00 2.39 0.08 93 1014.2
20260507074035 11 167 3.2 8.0 0.00 2.39 0.08 93 1014.3
20260507073535 11 161 3.2 8.0 0.00 2.39 0.08 93 1014.3
20260507073053 11 158 1.6 6.4 0.00 2.39 0.08 94 1014.4
20260507072531 10 0 0.0 6.4 0.00 2.39 0.08 93 1014.4
20260507072035 10 186 0.0 6.4 0.00 2.39 0.08 94 1014.4
20260507071549 10 126 1.6 4.8 0.00 2.39 0.08 95 1014.4
20260507071035 10 98 1.6 4.8 0.00 2.39 0.08 95 1014.4
20260507070535 10 160 0.0 4.8 0.00 2.39 0.08 96 1014.3
20260507070105 10 175 0.0 4.8 0.00 2.39 0.08 96 1014.2
20260507065536 10 191 1.6 6.4 0.00 2.62 0.08 96 1014.4
20260507065036 10 0 1.6 6.4 0.00 2.62 0.08 96 1014.3
20260507064549 10 165 0.0 6.4 0.00 2.62 0.08 96 1014.3
20260507064034 10 161 0.0 6.4 0.00 2.62 0.08 96 1014.2
20260507063535 10 159 1.6 6.4 0.00 2.62 0.08 96 1014.2
20260507063053 9 131 0.0 6.4 0.00 2.62 0.08 96 1014.3
20260507062535 9 108 1.6 4.8 0.00 2.62 0.08 96 1014.2
20260507062034 9 134 0.0 3.2 0.00 2.62 0.08 96 1014.3
20260507061549 8 181 0.0 3.2 0.00 2.62 0.08 96 1014.3
20260507061031 8 255 0.0 1.6 0.00 2.62 0.08 96 1014.3
20260507060534 8 0 0.0 1.6 0.00 2.62 0.08 96 1014.2
20260507060047 8 255 0.0 3.2 0.00 2.62 0.08 96 1014.2
20260507055536 8 0 0.0 3.2 0.00 2.90 0.08 96 1014.1
20260507055035 8 255 0.0 3.2 0.00 2.90 0.08 96 1014.1
20260507054547 8 255 0.0 3.2 0.00 2.90 0.08 95 1014.1
20260507054034 8 0 0.0 1.6 0.00 2.90 0.08 95 1013.9
20260507053535 8 0 0.0 1.6 0.00 2.90 0.08 95 1013.8
20260507053047 8 0 0.0 3.2 0.00 2.90 0.08 95 1013.7
20260507052535 8 0 0.0 3.2 0.00 2.90 0.08 96 1013.8
20260507052035 8 0 0.0 1.6 0.00 2.90 0.08 96 1013.7
20260507051546 8 0 0.0 0.0 0.00 2.90 0.08 96 1013.7
20260507051035 8 0 0.0 0.0 0.00 2.90 0.08 96 1013.6
20260507050535 8 0 0.0 1.6 0.00 2.90 0.08 96 1013.5
20260507050105 8 0 0.0 3.2 0.00 2.90 0.08 96 1013.5
20260507045535 8 339 1.6 3.2 0.00 3.17 0.08 96 1013.5
20260507045035 7 0 0.0 3.2 0.00 3.17 0.08 96 1013.5
20260507044553 7 0 0.0 0.0 0.00 3.17 0.08 95 1013.4
20260507044036 7 0 0.0 1.6 0.00 3.17 0.08 95 1013.4
20260507043535 7 0 0.0 3.2 0.00 3.17 0.08 95 1013.4
20260507043051 7 0 0.0 3.2 0.00 3.17 0.08 95 1013.3
20260507042538 8 0 0.0 3.2 0.00 3.17 0.08 95 1013.3
20260507042034 8 0 0.0 3.2 0.00 3.17 0.08 95 1013.3
20260507041550 7 22 0.0 3.2 0.00 3.17 0.08 95 1013.2
20260507041035 7 0 0.0 4.8 0.00 3.17 0.08 95 1013.3
20260507040535 7 17 1.6 4.8 0.00 3.17 0.08 94 1013.3
20260507040051 7 24 3.2 4.8 0.00 3.17 0.08 94 1013.1
20260507035535 7 5 3.2 4.8 0.00 3.58 0.08 95 1013.1
20260507035035 8 39 1.6 6.4 0.00 3.58 0.08 95 1013.1
20260507034550 7 0 1.6 6.4 0.00 3.58 0.08 95 1013.2
20260507034034 8 9 1.6 4.8 0.00 3.58 0.08 95 1013.2
20260507033537 8 5 3.2 4.8 0.00 3.58 0.08 94 1013.3
20260507033050 8 9 1.6 6.4 0.00 3.58 0.08 95 1013.2
20260507032534 8 10 3.2 6.4 0.00 3.58 0.08 95 1013.1
20260507032034 8 17 1.6 4.8 0.00 3.58 0.08 95 1013.1
20260507031548 8 28 1.6 4.8 0.00 3.58 0.08 96 1013.2
20260507031038 8 24 1.6 4.8 0.00 3.58 0.08 96 1013.2
20260507030535 8 0 0.0 4.8 0.00 3.58 0.08 95 1013.2
20260507030053 8 350 3.2 4.8 0.00 3.58 0.08 95 1013.3
20260507025534 8 360 1.6 4.8 0.00 3.68 0.08 95 1013.2
20260507025034 8 40 1.6 4.8 0.00 3.68 0.08 95 1013.1
20260507024549 8 50 1.6 4.8 0.00 3.68 0.08 95 1013.1
20260507024035 8 56 1.6 4.8 0.00 3.68 0.08 94 1012.9
20260507023535 8 0 0.0 6.4 0.00 3.68 0.08 94 1013.2
20260507023046 8 336 1.6 6.4 0.00 3.68 0.08 94 1013.2
20260507022535 8 325 1.6 6.4 0.00 3.68 0.08 94 1013.2
20260507022035 8 0 1.6 4.8 0.00 3.68 0.08 94 1013.3
20260507021556 8 355 1.6 4.8 0.00 3.68 0.08 94 1013.2
20260507021035 8 352 0.0 4.8 0.00 3.68 0.08 94 1013.2
20260507020535 8 339 1.6 4.8 0.00 3.68 0.08 95 1013.2
20260507020045 8 0 0.0 4.8 0.00 3.68 0.08 95 1013.1
20260507015536 8 346 1.6 4.8 0.00 3.71 0.08 95 1013.0
20260507015035 8 0 0.0 3.2 0.00 3.71 0.08 95 1013.0
20260507014543 8 0 0.0 3.2 0.00 3.71 0.08 95 1012.9
20260507014036 8 355 0.0 4.8 0.00 3.71 0.08 95 1013.0
20260507013534 8 332 1.6 4.8 0.00 3.71 0.08 95 1012.9
20260507013057 8 0 1.6 4.8 0.00 3.71 0.08 94 1012.8
20260507012537 8 337 0.0 4.8 0.00 3.71 0.08 94 1012.8
20260507012034 8 355 1.6 4.8 0.00 3.71 0.08 95 1012.7
20260507011550 8 0 1.6 4.8 0.00 3.71 0.08 95 1012.7
20260507011031 8 360 0.0 4.8 0.00 3.71 0.08 95 1012.8
20260507010535 8 15 1.6 4.8 0.00 3.71 0.08 95 1012.8
20260507010048 8 34 3.2 4.8 0.00 3.71 0.08 95 1012.7
20260507005535 8 11 1.6 4.8 0.00 4.11 0.08 94 1012.6
20260507005037 8 23 1.6 4.8 0.00 4.11 0.08 95 1012.5
20260507004553 8 355 1.6 4.8 0.00 4.11 0.08 95 1012.7
20260507004035 8 292 1.6 4.8 0.00 4.11 0.08 95 1012.7
20260507003535 8 0 0.0 4.8 0.00 4.11 0.08 95 1012.7
20260507003050 8 24 1.6 4.8 0.00 4.11 0.08 95 1012.7
20260507002534 8 13 1.6 4.8 0.00 4.11 0.08 95 1012.8
20260507002035 8 5 3.2 6.4 0.00 4.11 0.08 95 1012.7
20260507001548 9 10 0.0 6.4 0.00 4.11 0.08 95 1012.6
20260507001034 9 263 1.6 6.4 0.00 4.11 0.08 94 1012.7
20260507000536 9 349 1.6 4.8 0.00 4.11 0.08 95 1012.7
20260507000049 9 9 0.0 3.2 0.00 4.11 0.08 95 1012.5
20260506235534 9 335 1.6 3.2 0.00 4.11 0.08 95 1012.6
20260506235035 9 360 0.0 3.2 0.00 4.11 0.08 95 1012.7
20260506234552 9 360 0.0 4.8 0.00 4.11 0.08 95 1012.4
20260506234035 9 0 0.0 4.8 0.00 4.11 0.08 95 1012.4
20260506233535 9 339 1.6 4.8 0.00 4.11 0.08 95 1012.4
20260506233046 9 25 0.0 3.2 0.00 4.11 0.08 95 1012.3
20260506232534 9 0 0.0 3.2 0.00 4.11 0.08 95 1012.5
20260506232034 9 0 0.0 4.8 0.00 4.11 0.08 95 1012.7
20260506231546 9 0 1.6 6.4 0.03 4.11 0.08 95 1012.5
20260506231035 9 355 1.6 6.4 0.05 4.11 0.08 95 1012.6
20260506230534 9 23 3.2 8.0 0.08 4.11 0.08 95 1012.6
20260506230056 10 10 3.2 8.0 0.08 4.11 0.08 95 1012.5
20260506225534 10 28 3.2 8.0 0.08 4.17 0.08 95 1012.5
20260506225035 10 355 1.6 6.4 0.08 4.17 0.08 95 1012.6
20260506224550 10 5 3.2 6.4 0.08 4.17 0.08 95 1012.5
20260506224034 10 34 1.6 6.4 0.08 4.17 0.08 95 1012.5
20260506223534 10 17 1.6 6.4 0.08 4.17 0.08 95 1012.4
20260506223056 10 37 1.6 8.0 0.08 4.17 0.08 95 1012.6
20260506222535 10 61 4.8 9.7 0.08 4.17 0.08 95 1012.5
20260506222038 10 71 3.2 9.7 0.08 4.14 0.08 94 1012.6
20260506221547 10 90 3.2 6.4 0.05 4.11 0.05 94 1012.6
20260506221034 10 15 1.6 6.4 0.05 4.11 0.03 94 1012.6
20260506220536 10 0 0.0 3.2 0.03 4.09 0.00 94 1012.7
20260506220053 10 5 0.0 4.8 0.00 4.06 0.00 94 1012.7
20260506215534 10 333 0.0 4.8 0.00 4.22 4.06 94 1012.8
20260506215034 10 303 0.0 3.2 0.00 4.22 4.06 94 1012.9
20260506214551 10 0 0.0 3.2 0.03 4.22 4.06 94 1012.7